Location: Wavehorne
(51.0500°N, 0.8333°E)
Time: 02:32:26
(UTC+00:00)

NOSS 2-2 (E) - Pass Details

Date: 20 June 2021
Orbit: 448 x 1757 km, 63.3° (Epoch: 02 August)

Event Time Altitude Azimuth Distance (km) Brightness Sun altitude
Exits shadow 02:07:52 15° 214° (SW) 1,294 4.5 -10.2°
Maximum altitude 02:10:33 72° 131° (SE) 505 3.1 -10.0°
Drops below altitude 10° 02:14:26 10° 47° (NE) 1,813 7.4 -9.7°
Sets 02:16:52 0° 46° (NE) 2,855 8.8 -9.5°
